Tabellarische Ansicht des 2.6.2022


Die einzelnen Werte des Tages

Uhrzeit Temperatur Luftdruck Luftfeuchte Wind Hi-Wind Taupunkt THW Index Wind Chill Heat Index Solar- strahlung Regen

00:00

10.3 C

1014.3 hpa

87 %

0.0 km/h aus 117

0.0 km/h aus ---

8.2 C

10.3 C

10.3 C

10.3 C

0 W/m

0.00 mm

00:05

10.3 C

1014.3 hpa

87 %

1.6 km/h aus 114

9.7 km/h aus SW

8.2 C

10.3 C

10.3 C

10.3 C

0 W/m

0.00 mm

00:10

10.2 C

1014.3 hpa

87 %

3.2 km/h aus 115

8.0 km/h aus SW

8.2 C

10.3 C

10.2 C

10.3 C

0 W/m

0.00 mm

00:15

10.2 C

1014.3 hpa

87 %

1.6 km/h aus 117

6.4 km/h aus SW

8.2 C

10.3 C

10.2 C

10.3 C

0 W/m

0.00 mm

00:20

10.2 C

1014.3 hpa

87 %

1.6 km/h aus 117

4.8 km/h aus SW

8.2 C

10.3 C

10.2 C

10.3 C

0 W/m

0.00 mm

00:25

10.2 C

1014.3 hpa

87 %

0.0 km/h aus 117

3.2 km/h aus SW

8.1 C

10.2 C

10.2 C

10.2 C

0 W/m

0.00 mm

00:30

10.1 C

1014.4 hpa

87 %

0.0 km/h aus 116

0.0 km/h aus ---

8.0 C

10.2 C

10.1 C

10.2 C

0 W/m

0.00 mm

00:35

10.1 C

1014.4 hpa

87 %

0.0 km/h aus 114

0.0 km/h aus ---

8.0 C

10.2 C

10.1 C

10.2 C

0 W/m

0.00 mm

00:40

9.9 C

1014.4 hpa

87 %

0.0 km/h aus 116

0.0 km/h aus ---

7.9 C

10.1 C

9.9 C

10.1 C

0 W/m

0.00 mm

00:45

9.8 C

1014.4 hpa

87 %

0.0 km/h aus 117

3.2 km/h aus SW

7.8 C

9.9 C

9.8 C

9.9 C

0 W/m

0.00 mm

00:50

9.8 C

1014.4 hpa

87 %

0.0 km/h aus 117

4.8 km/h aus SW

7.7 C

9.9 C

9.8 C

9.9 C

0 W/m

0.00 mm

00:55

9.7 C

1014.4 hpa

86 %

0.0 km/h aus 117

0.0 km/h aus ---

7.4 C

9.7 C

9.7 C

9.7 C

0 W/m

0.00 mm

01:00

9.5 C

1014.4 hpa

86 %

1.6 km/h aus 115

6.4 km/h aus SW

7.3 C

9.6 C

9.5 C

9.6 C

0 W/m

0.00 mm

01:05

9.4 C

1014.4 hpa

86 %

0.0 km/h aus 114

3.2 km/h aus SW

7.2 C

9.4 C

9.4 C

9.4 C

0 W/m

0.00 mm

01:10

9.3 C

1014.4 hpa

86 %

0.0 km/h aus 117

0.0 km/h aus ---

7.1 C

9.3 C

9.3 C

9.3 C

0 W/m

0.00 mm

01:15

9.2 C

1014.4 hpa

86 %

0.0 km/h aus 116

0.0 km/h aus ---

6.9 C

9.2 C

9.2 C

9.2 C

0 W/m

0.00 mm

01:20

9.1 C

1014.4 hpa

86 %

0.0 km/h aus 117

0.0 km/h aus ---

6.8 C

9.1 C

9.1 C

9.1 C

0 W/m

0.00 mm

01:25

8.9 C

1014.4 hpa

86 %

0.0 km/h aus 117

0.0 km/h aus ---

6.7 C

8.9 C

8.9 C

8.9 C

0 W/m

0.00 mm

01:30

8.8 C

1014.5 hpa

86 %

0.0 km/h aus 114

0.0 km/h aus ---

6.6 C

8.8 C

8.8 C

8.8 C

0 W/m

0.00 mm

01:35

8.7 C

1014.5 hpa

86 %

0.0 km/h aus 115

0.0 km/h aus ---

6.5 C

8.7 C

8.7 C

8.7 C

0 W/m

0.00 mm

01:40

8.5 C

1014.5 hpa

86 %

0.0 km/h aus 117

0.0 km/h aus ---

6.3 C

8.5 C

8.5 C

8.5 C

0 W/m

0.00 mm

01:45

8.4 C

1014.5 hpa

86 %

0.0 km/h aus 117

0.0 km/h aus ---

6.2 C

8.4 C

8.4 C

8.4 C

0 W/m

0.00 mm

01:50

8.3 C

1014.5 hpa

86 %

0.0 km/h aus 117

0.0 km/h aus ---

6.1 C

8.3 C

8.3 C

8.3 C

0 W/m

0.00 mm

01:55

8.2 C

1014.5 hpa

87 %

0.0 km/h aus 116

0.0 km/h aus ---

6.1 C

8.2 C

8.2 C

8.2 C

0 W/m

0.00 mm

02:00

8.1 C

1014.7 hpa

86 %

3.2 km/h aus 114

6.4 km/h aus SW

5.9 C

8.1 C

8.1 C

8.1 C

0 W/m

0.00 mm

02:05

8.0 C

1014.7 hpa

87 %

3.2 km/h aus 116

8.0 km/h aus SW

6.0 C

8.1 C

8.0 C

8.1 C

0 W/m

0.00 mm

02:10

8.0 C

1014.7 hpa

87 %

3.2 km/h aus 116

6.4 km/h aus SW

6.0 C

8.1 C

8.0 C

8.1 C

0 W/m

0.00 mm

02:15

7.9 C

1014.9 hpa

87 %

1.6 km/h aus 116

6.4 km/h aus SW

5.9 C

8.0 C

7.9 C

8.0 C

0 W/m

0.00 mm

02:20

7.9 C

1014.9 hpa

88 %

0.0 km/h aus 117

1.6 km/h aus SW

6.0 C

7.9 C

7.9 C

7.9 C

0 W/m

0.00 mm

02:25

7.8 C

1014.9 hpa

88 %

0.0 km/h aus 116

0.0 km/h aus ---

6.0 C

7.9 C

7.8 C

7.9 C

0 W/m

0.00 mm

02:30

7.8 C

1014.9 hpa

88 %

0.0 km/h aus 115

0.0 km/h aus ---

5.9 C

7.8 C

7.8 C

7.8 C

0 W/m

0.00 mm

02:35

7.7 C

1014.9 hpa

88 %

1.6 km/h aus 115

6.4 km/h aus SW

5.8 C

7.7 C

7.7 C

7.7 C

0 W/m

0.00 mm

02:40

7.6 C

1014.9 hpa

88 %

3.2 km/h aus 117

4.8 km/h aus SW

5.7 C

7.6 C

7.6 C

7.6 C

0 W/m

0.00 mm

02:45

7.6 C

1015.1 hpa

88 %

0.0 km/h aus 116

3.2 km/h aus SW

5.7 C

7.6 C

7.6 C

7.6 C

0 W/m

0.00 mm

02:50

7.4 C

1015.1 hpa

88 %

0.0 km/h aus 117

0.0 km/h aus ---

5.6 C

7.4 C

7.4 C

7.4 C

0 W/m

0.00 mm

02:55

7.4 C

1015.1 hpa

88 %

0.0 km/h aus 117

0.0 km/h aus ---

5.5 C

7.4 C

7.4 C

7.4 C

0 W/m

0.00 mm

03:00

7.3 C

1015.3 hpa

88 %

3.2 km/h aus 114

6.4 km/h aus SW

5.4 C

7.3 C

7.3 C

7.3 C

0 W/m

0.00 mm

03:05

7.3 C

1015.3 hpa

89 %

3.2 km/h aus 117

6.4 km/h aus SW

5.6 C

7.3 C

7.3 C

7.3 C

0 W/m

0.00 mm

03:10

7.3 C

1015.3 hpa

89 %

0.0 km/h aus 117

4.8 km/h aus SW

5.6 C

7.3 C

7.3 C

7.3 C

0 W/m

0.00 mm

03:15

7.3 C

1015.4 hpa

89 %

0.0 km/h aus 116

0.0 km/h aus ---

5.6 C

7.3 C

7.3 C

7.3 C

0 W/m

0.00 mm

03:20

7.2 C

1015.4 hpa

89 %

0.0 km/h aus 116

0.0 km/h aus ---

5.5 C

7.3 C

7.2 C

7.3 C

0 W/m

0.00 mm

03:25

7.2 C

1015.4 hpa

89 %

0.0 km/h aus 117

0.0 km/h aus ---

5.5 C

7.2 C

7.2 C

7.2 C

0 W/m

0.00 mm

03:30

7.1 C

1015.4 hpa

89 %

0.0 km/h aus 112

0.0 km/h aus ---

5.4 C

7.2 C

7.1 C

7.2 C

0 W/m

0.00 mm

03:35

7.1 C

1015.4 hpa

89 %

0.0 km/h aus 115

0.0 km/h aus ---

5.4 C

7.1 C

7.1 C

7.1 C

0 W/m

0.00 mm

03:40

7.0 C

1015.4 hpa

89 %

0.0 km/h aus 117

0.0 km/h aus ---

5.3 C

7.1 C

7.0 C

7.1 C

0 W/m

0.00 mm

03:45

7.0 C

1015.4 hpa

89 %

0.0 km/h aus 116

0.0 km/h aus ---

5.3 C

7.1 C

7.0 C

7.1 C

0 W/m

0.00 mm

03:50

7.0 C

1015.4 hpa

89 %

0.0 km/h aus 117

0.0 km/h aus ---

5.3 C

7.1 C

7.0 C

7.1 C

0 W/m

0.00 mm

03:55

6.9 C

1015.4 hpa

89 %

0.0 km/h aus 117

0.0 km/h aus ---

5.3 C

7.0 C

6.9 C

7.0 C

0 W/m

0.00 mm

04:00

6.9 C

1015.4 hpa

90 %

1.6 km/h aus 114

6.4 km/h aus SW

5.4 C

6.9 C

6.9 C

6.9 C

0 W/m

0.00 mm

04:05

6.9 C

1015.4 hpa

90 %

0.0 km/h aus 116

0.0 km/h aus ---

5.4 C

6.9 C

6.9 C

6.9 C

0 W/m

0.00 mm

04:10

6.8 C

1015.4 hpa

90 %

0.0 km/h aus 118

0.0 km/h aus ---

5.3 C

6.9 C

6.8 C

6.9 C

0 W/m

0.00 mm

04:15

6.7 C

1015.5 hpa

90 %

0.0 km/h aus 116

0.0 km/h aus ---

5.2 C

6.8 C

6.7 C

6.8 C

0 W/m

0.00 mm

04:20

6.6 C

1015.5 hpa

90 %

0.0 km/h aus 117

0.0 km/h aus ---

5.1 C

6.7 C

6.6 C

6.7 C

0 W/m

0.00 mm

04:25

6.6 C

1015.5 hpa

89 %

0.0 km/h aus 116

0.0 km/h aus ---

4.9 C

6.6 C

6.6 C

6.6 C

0 W/m

0.00 mm

04:30

6.4 C

1015.5 hpa

89 %

0.0 km/h aus 115

0.0 km/h aus ---

4.8 C

6.4 C

6.4 C

6.4 C

0 W/m

0.00 mm

04:35

6.4 C

1015.5 hpa

90 %

0.0 km/h aus 114

0.0 km/h aus ---

4.9 C

6.4 C

6.4 C

6.4 C

0 W/m

0.00 mm

04:40

6.3 C

1015.5 hpa

90 %

0.0 km/h aus 117

0.0 km/h aus ---

4.8 C

6.3 C

6.3 C

6.3 C

0 W/m

0.00 mm

04:45

6.2 C

1015.6 hpa

89 %

0.0 km/h aus 117

0.0 km/h aus ---

4.5 C

6.2 C

6.2 C

6.2 C

0 W/m

0.00 mm

04:50

6.1 C

1015.6 hpa

89 %

0.0 km/h aus 117

0.0 km/h aus ---

4.4 C

6.1 C

6.1 C

6.1 C

0 W/m

0.00 mm

04:55

6.1 C

1015.6 hpa

89 %

0.0 km/h aus 117

0.0 km/h aus ---

4.4 C

6.1 C

6.1 C

6.1 C

1 W/m

0.00 mm

05:00

5.9 C

1015.9 hpa

89 %

0.0 km/h aus 115

0.0 km/h aus ---

4.3 C

5.9 C

5.9 C

5.9 C

5 W/m

0.00 mm

05:05

5.9 C

1015.9 hpa

89 %

0.0 km/h aus 114

0.0 km/h aus ---

4.2 C

5.9 C

5.9 C

5.9 C

7 W/m

0.00 mm

05:10

5.8 C

1015.9 hpa

89 %

0.0 km/h aus 117

0.0 km/h aus ---

4.2 C

5.8 C

5.8 C

5.8 C

9 W/m

0.00 mm

05:15

5.8 C

1016.0 hpa

89 %

0.0 km/h aus 117

0.0 km/h aus ---

4.1 C

5.8 C

5.8 C

5.8 C

11 W/m

0.00 mm

05:20

5.7 C

1016.0 hpa

89 %

0.0 km/h aus 117

0.0 km/h aus ---

4.0 C

5.7 C

5.7 C

5.7 C

12 W/m

0.00 mm

05:25

5.7 C

1016.0 hpa

89 %

0.0 km/h aus 116

0.0 km/h aus ---

4.0 C

5.7 C

5.7 C

5.7 C

15 W/m

0.00 mm

05:30

5.7 C

1016.0 hpa

89 %

0.0 km/h aus 116

0.0 km/h aus ---

4.0 C

5.7 C

5.7 C

5.7 C

18 W/m

0.00 mm

05:35

5.7 C

1016.0 hpa

90 %

0.0 km/h aus 113

0.0 km/h aus ---

4.2 C

5.7 C

5.7 C

5.7 C

20 W/m

0.00 mm

05:40

5.7 C

1016.0 hpa

90 %

0.0 km/h aus 116

0.0 km/h aus ---

4.2 C

5.7 C

5.7 C

5.7 C

23 W/m

0.00 mm

05:45

5.6 C

1016.2 hpa

90 %

0.0 km/h aus 117

0.0 km/h aus ---

4.1 C

5.6 C

5.6 C

5.6 C

26 W/m

0.00 mm

05:50

5.6 C

1016.2 hpa

90 %

0.0 km/h aus 116

0.0 km/h aus ---

4.1 C

5.6 C

5.6 C

5.6 C

29 W/m

0.00 mm

05:55

5.7 C

1016.2 hpa

90 %

0.0 km/h aus 117

3.2 km/h aus SW

4.2 C

5.7 C

5.7 C

5.7 C

32 W/m

0.00 mm

06:00

5.8 C

1016.4 hpa

90 %

3.2 km/h aus 117

6.4 km/h aus SW

4.3 C

5.8 C

5.8 C

5.8 C

34 W/m

0.00 mm

06:05

6.0 C

1016.4 hpa

91 %

4.8 km/h aus 115

6.4 km/h aus SW

4.6 C

5.3 C

5.3 C

6.0 C

43 W/m

0.00 mm

06:10

6.2 C

1016.4 hpa

91 %

0.0 km/h aus 112

4.8 km/h aus SW

4.9 C

6.2 C

6.2 C

6.2 C

66 W/m

0.00 mm

06:15

6.4 C

1016.6 hpa

91 %

0.0 km/h aus 118

0.0 km/h aus ---

5.1 C

6.5 C

6.4 C

6.5 C

79 W/m

0.00 mm

06:20

6.7 C

1016.6 hpa

91 %

0.0 km/h aus 117

3.2 km/h aus SW

5.3 C

6.7 C

6.7 C

6.7 C

90 W/m

0.00 mm

06:25

6.8 C

1016.6 hpa

92 %

0.0 km/h aus 117

4.8 km/h aus SW

5.6 C

6.8 C

6.8 C

6.8 C

103 W/m

0.00 mm

06:30

7.1 C

1016.8 hpa

92 %

0.0 km/h aus 117

0.0 km/h aus ---

5.9 C

7.2 C

7.1 C

7.2 C

117 W/m

0.00 mm

06:35

7.4 C

1016.8 hpa

92 %

0.0 km/h aus 115

0.0 km/h aus ---

6.2 C

7.5 C

7.4 C

7.5 C

132 W/m

0.00 mm

06:40

7.8 C

1016.8 hpa

93 %

0.0 km/h aus 114

0.0 km/h aus ---

6.8 C

7.9 C

7.8 C

7.9 C

147 W/m

0.00 mm

06:45

8.2 C

1017.0 hpa

93 %

1.6 km/h aus 116

6.4 km/h aus SW

7.1 C

8.3 C

8.2 C

8.3 C

160 W/m

0.00 mm

06:50

8.4 C

1017.0 hpa

93 %

3.2 km/h aus 117

8.0 km/h aus SW

7.4 C

8.6 C

8.4 C

8.6 C

170 W/m

0.00 mm

06:55

8.8 C

1017.0 hpa

93 %

8.0 km/h aus 117

14.5 km/h aus SSW

7.7 C

7.8 C

7.6 C

8.9 C

183 W/m

0.00 mm

07:00

9.1 C

1017.1 hpa

93 %

6.4 km/h aus 116

9.7 km/h aus SSW

8.0 C

8.4 C

8.3 C

9.2 C

191 W/m

0.00 mm

07:05

9.3 C

1017.1 hpa

93 %

9.7 km/h aus 114

16.1 km/h aus S

8.3 C

8.2 C

7.9 C

9.6 C

205 W/m

0.00 mm

07:10

9.5 C

1017.1 hpa

93 %

6.4 km/h aus 117

8.0 km/h aus SSW

8.4 C

9.0 C

8.8 C

9.7 C

220 W/m

0.00 mm

07:15

9.8 C

1017.2 hpa

94 %

6.4 km/h aus 117

9.7 km/h aus SSW

8.9 C

9.4 C

9.1 C

10.1 C

245 W/m

0.00 mm

07:20

9.9 C

1017.2 hpa

93 %

4.8 km/h aus 117

9.7 km/h aus SSW

8.9 C

10.0 C

9.8 C

10.2 C

254 W/m

0.00 mm

07:25

10.0 C

1017.2 hpa

93 %

0.0 km/h aus 114

3.2 km/h aus SSW

8.9 C

10.2 C

10.0 C

10.2 C

274 W/m

0.00 mm

07:30

10.2 C

1017.5 hpa

93 %

1.6 km/h aus 113

4.8 km/h aus SSW

9.1 C

10.4 C

10.2 C

10.4 C

290 W/m

0.00 mm

07:35

10.4 C

1017.5 hpa

93 %

3.2 km/h aus 117

8.0 km/h aus SSW

9.3 C

10.6 C

10.4 C

10.6 C

302 W/m

0.00 mm

07:40

10.6 C

1017.5 hpa

93 %

8.0 km/h aus 117

11.3 km/h aus SSW

9.5 C

9.8 C

9.7 C

10.7 C

314 W/m

0.00 mm

07:45

10.7 C

1017.6 hpa

93 %

6.4 km/h aus 116

11.3 km/h aus SSW

9.6 C

10.3 C

10.1 C

10.8 C

233 W/m

0.00 mm

07:50

10.7 C

1017.6 hpa

93 %

6.4 km/h aus 116

9.7 km/h aus SSW

9.6 C

10.4 C

10.2 C

10.9 C

254 W/m

0.00 mm

07:55

10.8 C

1017.6 hpa

93 %

3.2 km/h aus 114

6.4 km/h aus SSW

9.7 C

11.0 C

10.8 C

11.0 C

337 W/m

0.00 mm

08:00

11.2 C

1017.6 hpa

93 %

4.8 km/h aus 116

8.0 km/h aus SSW

10.1 C

11.3 C

11.2 C

11.4 C

383 W/m

0.00 mm

08:05

11.5 C

1017.6 hpa

93 %

3.2 km/h aus 117

6.4 km/h aus SSW

10.4 C

11.6 C

11.5 C

11.6 C

373 W/m

0.00 mm

08:10

11.8 C

1017.6 hpa

93 %

4.8 km/h aus 117

9.7 km/h aus SSW

10.7 C

11.9 C

11.8 C

11.9 C

409 W/m

0.00 mm

08:15

12.1 C

1017.6 hpa

93 %

6.4 km/h aus 116

11.3 km/h aus SSW

11.0 C

11.8 C

11.7 C

12.2 C

448 W/m

0.00 mm

08:20

12.3 C

1017.6 hpa

92 %

4.8 km/h aus 114

9.7 km/h aus SSW

11.0 C

12.3 C

12.3 C

12.3 C

460 W/m

0.00 mm

08:25

12.5 C

1017.6 hpa

92 %

6.4 km/h aus 118

9.7 km/h aus SSW

11.2 C

12.3 C

12.3 C

12.6 C

459 W/m

0.00 mm

08:30

12.7 C

1017.8 hpa

91 %

8.0 km/h aus 117

14.5 km/h aus SSW

11.2 C

12.2 C

12.2 C

12.7 C

464 W/m

0.00 mm

08:35

12.9 C

1017.8 hpa

91 %

8.0 km/h aus 116

14.5 km/h aus SSW

11.5 C

12.4 C

12.4 C

12.9 C

505 W/m

0.00 mm

08:40

13.1 C

1017.8 hpa

90 %

9.7 km/h aus 115

14.5 km/h aus S

11.5 C

12.4 C

12.4 C

13.2 C

524 W/m

0.00 mm

08:45

13.3 C

1018.0 hpa

89 %

9.7 km/h aus 114

16.1 km/h aus S

11.6 C

12.7 C

12.7 C

13.4 C

415 W/m

0.00 mm

08:50

13.3 C

1018.0 hpa

88 %

9.7 km/h aus 114

14.5 km/h aus S

11.4 C

12.7 C

12.7 C

13.3 C

301 W/m

0.00 mm

08:55

13.3 C

1018.0 hpa

87 %

8.0 km/h aus 116

14.5 km/h aus S

11.2 C

12.9 C

12.9 C

13.3 C

511 W/m

0.00 mm

09:00

13.4 C

1017.9 hpa

85 %

6.4 km/h aus 117

11.3 km/h aus S

10.9 C

13.2 C

13.3 C

13.3 C

314 W/m

0.00 mm

09:05

13.0 C

1017.9 hpa

84 %

8.0 km/h aus 114

16.1 km/h aus S

10.4 C

12.5 C

12.6 C

12.9 C

339 W/m

0.00 mm

09:10

13.1 C

1017.9 hpa

83 %

8.0 km/h aus 116

11.3 km/h aus S

10.2 C

12.5 C

12.6 C

12.9 C

486 W/m

0.00 mm

09:15

13.2 C

1018.0 hpa

82 %

8.0 km/h aus 116

16.1 km/h aus S

10.2 C

12.7 C

12.8 C

13.1 C

594 W/m

0.00 mm

09:20

13.5 C

1018.0 hpa

82 %

8.0 km/h aus 117

16.1 km/h aus SSW

10.5 C

13.0 C

13.1 C

13.4 C

597 W/m

0.00 mm

09:25

13.7 C

1018.0 hpa

81 %

11.3 km/h aus 115

17.7 km/h aus SSW

10.5 C

12.7 C

12.9 C

13.6 C

343 W/m

0.00 mm

09:30

13.3 C

1018.0 hpa

81 %

11.3 km/h aus 116

17.7 km/h aus S

10.1 C

12.3 C

12.4 C

13.2 C

202 W/m

0.00 mm

09:35

13.6 C

1018.0 hpa

83 %

8.0 km/h aus 116

16.1 km/h aus S

10.7 C

13.1 C

13.2 C

13.4 C

633 W/m

0.00 mm

09:40

13.8 C

1018.0 hpa

80 %

4.8 km/h aus 117

12.9 km/h aus S

10.4 C

13.7 C

13.8 C

13.7 C

423 W/m

0.00 mm

09:45

13.6 C

1018.1 hpa

80 %

9.7 km/h aus 117

16.1 km/h aus S

10.2 C

12.8 C

13.0 C

13.4 C

388 W/m

0.00 mm

09:50

14.0 C

1018.1 hpa

80 %

11.3 km/h aus 115

20.9 km/h aus S

10.6 C

13.1 C

13.2 C

13.8 C

609 W/m

0.00 mm

09:55

14.8 C

1018.1 hpa

79 %

11.3 km/h aus 115

20.9 km/h aus S

11.2 C

14.0 C

14.2 C

14.6 C

619 W/m

0.00 mm

10:00

14.5 C

1018.1 hpa

79 %

12.9 km/h aus 117

20.9 km/h aus S

10.9 C

13.3 C

13.4 C

14.3 C

400 W/m

0.00 mm

10:05

13.9 C

1018.1 hpa

79 %

14.5 km/h aus 115

22.5 km/h aus S

10.3 C

12.1 C

12.3 C

13.7 C

353 W/m

0.00 mm

10:10

14.5 C

1018.1 hpa

78 %

12.9 km/h aus 115

19.3 km/h aus S

10.7 C

13.3 C

13.4 C

14.3 C

651 W/m

0.00 mm

10:15

14.0 C

1018.1 hpa

77 %

9.7 km/h aus 114

17.7 km/h aus S

10.0 C

13.2 C

13.4 C

13.8 C

230 W/m

0.00 mm

10:20

14.1 C

1018.1 hpa

78 %

9.7 km/h aus 116

19.3 km/h aus SSW

10.3 C

13.3 C

13.6 C

13.8 C

527 W/m

0.00 mm

10:25

14.7 C

1018.1 hpa

78 %

11.3 km/h aus 116

19.3 km/h aus S

10.9 C

13.9 C

14.1 C

14.5 C

639 W/m

0.00 mm

10:30

14.9 C

1018.2 hpa

76 %

9.7 km/h aus 117

17.7 km/h aus SSW

10.7 C

14.4 C

14.6 C

14.7 C

642 W/m

0.00 mm

10:35

14.7 C

1018.2 hpa

73 %

4.8 km/h aus 116

17.7 km/h aus SSW

9.9 C

14.3 C

14.7 C

14.3 C

398 W/m

0.00 mm

10:40

14.7 C

1018.2 hpa

76 %

11.3 km/h aus 115

19.3 km/h aus S

10.5 C

13.9 C

14.1 C

14.5 C

649 W/m

0.00 mm

10:45

15.3 C

1018.4 hpa

73 %

11.3 km/h aus 117

20.9 km/h aus S

10.5 C

14.6 C

14.8 C

15.1 C

476 W/m

0.00 mm

10:50

14.7 C

1018.4 hpa

72 %

1.6 km/h aus 117

8.0 km/h aus WSW

9.7 C

14.3 C

14.7 C

14.3 C

419 W/m

0.00 mm

10:55

14.4 C

1018.4 hpa

72 %

1.6 km/h aus 117

6.4 km/h aus SW

9.4 C

14.0 C

14.4 C

14.0 C

188 W/m

0.00 mm

11:00

14.1 C

1018.6 hpa

73 %

6.4 km/h aus 114

14.5 km/h aus S

9.3 C

13.7 C

14.1 C

13.7 C

159 W/m

0.00 mm

11:05

14.1 C

1018.6 hpa

74 %

4.8 km/h aus 117

14.5 km/h aus SW

9.5 C

13.8 C

14.1 C

13.8 C

320 W/m

0.00 mm

11:10

14.3 C

1018.6 hpa

74 %

4.8 km/h aus 117

17.7 km/h aus S

9.7 C

13.9 C

14.3 C

13.9 C

306 W/m

0.00 mm

11:15

14.6 C

1018.6 hpa

75 %

12.9 km/h aus 117

19.3 km/h aus S

10.2 C

13.3 C

13.6 C

14.3 C

329 W/m

0.00 mm

11:20

14.6 C

1018.6 hpa

70 %

4.8 km/h aus 115

17.7 km/h aus SSW

9.2 C

14.2 C

14.6 C

14.2 C

551 W/m

0.00 mm

11:25

15.2 C

1018.6 hpa

69 %

4.8 km/h aus 115

16.1 km/h aus SSW

9.6 C

14.8 C

15.2 C

14.8 C

656 W/m

0.00 mm

11:30

15.3 C

1018.7 hpa

67 %

0.0 km/h aus 116

6.4 km/h aus WSW

9.2 C

14.8 C

15.3 C

14.8 C

484 W/m

0.00 mm

11:35

15.1 C

1018.7 hpa

68 %

1.6 km/h aus 118

12.9 km/h aus SW

9.2 C

14.7 C

15.1 C

14.7 C

664 W/m

0.00 mm

11:40

15.1 C

1018.7 hpa

67 %

3.2 km/h aus 115

9.7 km/h aus WSW

9.0 C

14.6 C

15.1 C

14.6 C

399 W/m

0.00 mm

11:45

15.1 C

1018.7 hpa

68 %

3.2 km/h aus 114

17.7 km/h aus SW

9.2 C

14.7 C

15.1 C

14.7 C

345 W/m

0.00 mm

11:50

14.9 C

1018.7 hpa

67 %

1.6 km/h aus 116

8.0 km/h aus S

8.9 C

14.4 C

14.9 C

14.4 C

265 W/m

0.00 mm

11:55

14.9 C

1018.7 hpa

68 %

6.4 km/h aus 117

20.9 km/h aus SSW

9.1 C

14.5 C

14.9 C

14.5 C

304 W/m

0.00 mm

12:00

14.9 C

1018.8 hpa

68 %

4.8 km/h aus 116

11.3 km/h aus WSW

9.1 C

14.5 C

14.9 C

14.5 C

272 W/m

0.00 mm

12:05

15.8 C

1018.8 hpa

65 %

1.6 km/h aus 116

8.0 km/h aus W

9.2 C

15.3 C

15.8 C

15.3 C

665 W/m

0.00 mm

12:10

15.8 C

1018.8 hpa

62 %

4.8 km/h aus 115

11.3 km/h aus WSW

8.5 C

15.2 C

15.8 C

15.2 C

318 W/m

0.00 mm

12:15

15.5 C

1018.7 hpa

63 %

0.0 km/h aus 117

4.8 km/h aus W

8.5 C

14.9 C

15.5 C

14.9 C

276 W/m

0.00 mm

12:20

15.3 C

1018.7 hpa

65 %

1.6 km/h aus 115

4.8 km/h aus W

8.8 C

14.8 C

15.3 C

14.8 C

249 W/m

0.00 mm

12:25

15.2 C

1018.7 hpa

65 %

1.6 km/h aus 117

8.0 km/h aus W

8.7 C

14.7 C

15.2 C

14.7 C

199 W/m

0.00 mm

12:30

15.1 C

1018.8 hpa

66 %

4.8 km/h aus 115

16.1 km/h aus SSW

8.7 C

14.6 C

15.1 C

14.6 C

218 W/m

0.00 mm

12:35

15.1 C

1018.8 hpa

67 %

1.6 km/h aus 115

8.0 km/h aus WSW

9.0 C

14.6 C

15.1 C

14.6 C

268 W/m

0.00 mm

12:40

15.0 C

1018.8 hpa

66 %

3.2 km/h aus 118

8.0 km/h aus WNW

8.7 C

14.5 C

15.0 C

14.5 C

286 W/m

0.00 mm

12:45

15.0 C

1018.7 hpa

67 %

1.6 km/h aus 117

8.0 km/h aus WNW

8.9 C

14.5 C

15.0 C

14.5 C

351 W/m

0.00 mm

12:50

15.4 C

1018.7 hpa

66 %

1.6 km/h aus 115

8.0 km/h aus WSW

9.1 C

14.9 C

15.4 C

14.9 C

407 W/m

0.00 mm

12:55

15.5 C

1018.7 hpa

65 %

3.2 km/h aus 115

11.3 km/h aus SSW

8.9 C

15.0 C

15.5 C

15.0 C

377 W/m

0.00 mm

13:00

15.8 C

1018.7 hpa

66 %

1.6 km/h aus 115

11.3 km/h aus SW

9.4 C

15.3 C

15.8 C

15.3 C

424 W/m

0.00 mm

13:05

16.0 C

1018.7 hpa

62 %

1.6 km/h aus 117

8.0 km/h aus W

8.7 C

15.4 C

16.0 C

15.4 C

390 W/m

0.00 mm

13:10

15.9 C

1018.7 hpa

62 %

1.6 km/h aus 117

8.0 km/h aus WNW

8.7 C

15.3 C

15.9 C

15.3 C

486 W/m

0.00 mm

13:15

16.9 C

1018.6 hpa

59 %

4.8 km/h aus 114

14.5 km/h aus WSW

8.9 C

16.3 C

16.9 C

16.3 C

669 W/m

0.00 mm

13:20

17.3 C

1018.6 hpa

59 %

3.2 km/h aus 116

14.5 km/h aus WSW

9.2 C

16.7 C

17.3 C

16.7 C

662 W/m

0.00 mm

13:25

17.8 C

1018.6 hpa

59 %

4.8 km/h aus 117

11.3 km/h aus SW

9.7 C

17.2 C

17.8 C

17.2 C

650 W/m

0.00 mm

13:30

17.7 C

1018.6 hpa

57 %

3.2 km/h aus 117

14.5 km/h aus WNW

9.0 C

17.0 C

17.7 C

17.0 C

603 W/m

0.00 mm

13:35

16.9 C

1018.6 hpa

58 %

1.6 km/h aus 116

12.9 km/h aus W

8.6 C

16.2 C

16.9 C

16.2 C

433 W/m

0.00 mm

13:40

16.8 C

1018.6 hpa

57 %

3.2 km/h aus 115

11.3 km/h aus SW

8.2 C

16.0 C

16.8 C

16.0 C

503 W/m

0.00 mm

13:45

16.7 C

1018.5 hpa

57 %

3.2 km/h aus 118

12.9 km/h aus SW

8.1 C

15.9 C

16.7 C

15.9 C

331 W/m

0.00 mm

13:50

16.6 C

1018.5 hpa

59 %

3.2 km/h aus 117

11.3 km/h aus WNW

8.5 C

15.8 C

16.6 C

15.8 C

371 W/m

0.00 mm

13:55

16.6 C

1018.5 hpa

57 %

3.2 km/h aus 116

9.7 km/h aus WSW

8.0 C

15.8 C

16.6 C

15.8 C

349 W/m

0.00 mm

14:00

16.4 C

1018.5 hpa

59 %

0.0 km/h aus 113

3.2 km/h aus WNW

8.4 C

15.7 C

16.4 C

15.7 C

287 W/m

0.00 mm

14:05

16.4 C

1018.5 hpa

58 %

3.2 km/h aus 116

14.5 km/h aus W

8.2 C

15.7 C

16.4 C

15.7 C

278 W/m

0.00 mm

14:10

16.2 C

1018.5 hpa

59 %

3.2 km/h aus 117

9.7 km/h aus WNW

8.2 C

15.5 C

16.2 C

15.5 C

312 W/m

0.00 mm

14:15

16.4 C

1018.4 hpa

60 %

0.0 km/h aus 116

6.4 km/h aus NW

8.6 C

15.7 C

16.4 C

15.7 C

339 W/m

0.00 mm

14:20

17.3 C

1018.4 hpa

59 %

1.6 km/h aus 116

8.0 km/h aus WSW

9.2 C

16.7 C

17.3 C

16.7 C

673 W/m

0.00 mm

14:25

17.3 C

1018.4 hpa

56 %

4.8 km/h aus 114

11.3 km/h aus SSW

8.5 C

16.6 C

17.3 C

16.6 C

535 W/m

0.00 mm

14:30

17.2 C

1018.3 hpa

59 %

0.0 km/h aus 116

4.8 km/h aus SSW

9.1 C

16.5 C

17.2 C

16.5 C

318 W/m

0.00 mm

14:35

16.9 C

1018.3 hpa

59 %

0.0 km/h aus 117

4.8 km/h aus WSW

8.9 C

16.3 C

16.9 C

16.3 C

247 W/m

0.00 mm

14:40

16.7 C

1018.3 hpa

58 %

1.6 km/h aus 117

6.4 km/h aus WNW

8.4 C

16.0 C

16.7 C

16.0 C

259 W/m

0.00 mm

14:45

16.8 C

1018.3 hpa

60 %

1.6 km/h aus 114

6.4 km/h aus WNW

9.0 C

16.1 C

16.8 C

16.1 C

286 W/m

0.00 mm

14:50

16.9 C

1018.3 hpa

59 %

3.2 km/h aus 117

9.7 km/h aus NW

8.8 C

16.2 C

16.9 C

16.2 C

355 W/m

0.00 mm

14:55

17.2 C

1018.3 hpa

58 %

3.2 km/h aus 117

8.0 km/h aus WSW

8.8 C

16.5 C

17.2 C

16.5 C

488 W/m

0.00 mm

15:00

17.5 C

1018.4 hpa

56 %

0.0 km/h aus 117

4.8 km/h aus WNW

8.6 C

16.8 C

17.5 C

16.8 C

438 W/m

0.00 mm

15:05

17.2 C

1018.4 hpa

55 %

1.6 km/h aus 115

8.0 km/h aus WSW

8.1 C

16.4 C

17.2 C

16.4 C

303 W/m

0.00 mm

15:10

16.9 C

1018.4 hpa

57 %

0.0 km/h aus 115

8.0 km/h aus W

8.4 C

16.2 C

16.9 C

16.2 C

283 W/m

0.00 mm

15:15

16.9 C

1018.2 hpa

57 %

0.0 km/h aus 117

6.4 km/h aus W

8.4 C

16.2 C

16.9 C

16.2 C

279 W/m

0.00 mm

15:20

16.9 C

1018.2 hpa

57 %

0.0 km/h aus 117

4.8 km/h aus WNW

8.4 C

16.2 C

16.9 C

16.2 C

296 W/m

0.00 mm

15:25

17.6 C

1018.2 hpa

57 %

0.0 km/h aus 117

4.8 km/h aus WNW

9.0 C

16.9 C

17.6 C

16.9 C

623 W/m

0.00 mm

15:30

17.6 C

1018.3 hpa

55 %

0.0 km/h aus 114

3.2 km/h aus W

8.5 C

16.9 C

17.6 C

16.9 C

475 W/m

0.00 mm

15:35

17.4 C

1018.3 hpa

55 %

0.0 km/h aus 116

4.8 km/h aus WNW

8.3 C

16.7 C

17.4 C

16.7 C

360 W/m

0.00 mm

15:40

17.4 C

1018.3 hpa

55 %

0.0 km/h aus 117

1.6 km/h aus WNW

8.3 C

16.6 C

17.4 C

16.6 C

345 W/m

0.00 mm

15:45

17.4 C

1018.2 hpa

56 %

0.0 km/h aus 116

4.8 km/h aus WNW

8.5 C

16.7 C

17.4 C

16.7 C

281 W/m

0.00 mm

15:50

17.9 C

1018.2 hpa

55 %

1.6 km/h aus 117

6.4 km/h aus NW

8.7 C

17.2 C

17.9 C

17.2 C

452 W/m

0.00 mm

15:55

17.9 C

1018.2 hpa

55 %

1.6 km/h aus 115

8.0 km/h aus WNW

8.7 C

17.2 C

17.9 C

17.2 C

411 W/m

0.00 mm

16:00

17.7 C

1018.1 hpa

56 %

0.0 km/h aus 117

0.0 km/h aus ---

8.8 C

17.1 C

17.7 C

17.1 C

199 W/m

0.00 mm

16:05

17.3 C

1018.1 hpa

56 %

1.6 km/h aus 117

6.4 km/h aus WNW

8.5 C

16.6 C

17.3 C

16.6 C

163 W/m

0.00 mm

16:10

17.1 C

1018.1 hpa

57 %

0.0 km/h aus 116

4.8 km/h aus W

8.5 C

16.3 C

17.1 C

16.3 C

159 W/m

0.00 mm

16:15

17.3 C

1018.1 hpa

55 %

0.0 km/h aus 112

0.0 km/h aus ---

8.2 C

16.6 C

17.3 C

16.6 C

623 W/m

0.00 mm

16:20

17.9 C

1018.1 hpa

56 %

0.0 km/h aus 116

3.2 km/h aus NW

9.0 C

17.3 C

17.9 C

17.3 C

609 W/m

0.00 mm

16:25

18.3 C

1018.1 hpa

55 %

1.6 km/h aus 117

8.0 km/h aus NNE

9.1 C

17.7 C

18.3 C

17.7 C

594 W/m

0.00 mm

16:30

18.3 C

1018.1 hpa

53 %

0.0 km/h aus 117

3.2 km/h aus NNE

8.6 C

17.6 C

18.3 C

17.6 C

598 W/m

0.00 mm

16:35

18.2 C

1018.1 hpa

54 %

0.0 km/h aus 116

3.2 km/h aus NNE

8.8 C

17.5 C

18.2 C

17.5 C

225 W/m

0.00 mm

16:40

18.3 C

1018.1 hpa

55 %

0.0 km/h aus 115

0.0 km/h aus ---

9.1 C

17.6 C

18.3 C

17.6 C

502 W/m

0.00 mm

16:45

18.0 C

1018.1 hpa

54 %

0.0 km/h aus 116

0.0 km/h aus ---

8.5 C

17.2 C

18.0 C

17.2 C

318 W/m

0.00 mm

16:50

18.1 C

1018.1 hpa

52 %

1.6 km/h aus 117

6.4 km/h aus ENE

8.1 C

17.3 C

18.1 C

17.3 C

270 W/m

0.00 mm

16:55

17.9 C

1018.1 hpa

55 %

0.0 km/h aus 118

3.2 km/h aus ENE

8.8 C

17.2 C

17.9 C

17.2 C

263 W/m

0.00 mm

17:00

17.8 C

1018.1 hpa

56 %

0.0 km/h aus 114

3.2 km/h aus ENE

8.9 C

17.1 C

17.8 C

17.1 C

266 W/m

0.00 mm

17:05

18.0 C

1018.1 hpa

54 %

0.0 km/h aus 116

4.8 km/h aus ENE

8.5 C

17.2 C

18.0 C

17.2 C

577 W/m

0.00 mm

17:10

18.0 C

1018.1 hpa

53 %

3.2 km/h aus 117

8.0 km/h aus ENE

8.3 C

17.2 C

18.0 C

17.2 C

259 W/m

0.00 mm

17:15

18.1 C

1018.0 hpa

54 %

0.0 km/h aus 117

3.2 km/h aus ENE

8.6 C

17.3 C

18.1 C

17.3 C

446 W/m

0.00 mm

17:20

18.3 C

1018.0 hpa

53 %

0.0 km/h aus 114

4.8 km/h aus ENE

8.6 C

17.6 C

18.3 C

17.6 C

551 W/m

0.00 mm

17:25

18.4 C

1018.0 hpa

54 %

1.6 km/h aus 115

8.0 km/h aus E

9.0 C

17.7 C

18.4 C

17.7 C

440 W/m

0.00 mm

17:30

18.7 C

1018.0 hpa

53 %

0.0 km/h aus 117

0.0 km/h aus ---

8.9 C

17.9 C

18.7 C

17.9 C

559 W/m

0.00 mm

17:35

18.6 C

1018.0 hpa

54 %

0.0 km/h aus 117

6.4 km/h aus E

9.1 C

17.8 C

18.6 C

17.8 C

579 W/m

0.00 mm

17:40

18.9 C

1018.0 hpa

52 %

1.6 km/h aus 116

6.4 km/h aus E

8.9 C

18.2 C

18.9 C

18.2 C

570 W/m

0.00 mm

17:45

19.2 C

1018.0 hpa

52 %

1.6 km/h aus 115

4.8 km/h aus E

9.1 C

18.4 C

19.2 C

18.4 C

539 W/m

0.00 mm

17:50

18.9 C

1018.0 hpa

52 %

1.6 km/h aus 117

9.7 km/h aus NNW

8.9 C

18.2 C

18.9 C

18.2 C

438 W/m

0.00 mm

17:55

18.6 C

1018.0 hpa

53 %

0.0 km/h aus 117

3.2 km/h aus NNW

8.8 C

17.8 C

18.6 C

17.8 C

288 W/m

0.00 mm

18:00

18.3 C

1017.9 hpa

54 %

0.0 km/h aus 118

6.4 km/h aus N

8.9 C

17.6 C

18.3 C

17.6 C

421 W/m

0.00 mm

18:05

18.4 C

1017.9 hpa

54 %

1.6 km/h aus 114

8.0 km/h aus NNE

9.0 C

17.7 C

18.4 C

17.7 C

326 W/m

0.00 mm

18:10

18.1 C

1017.9 hpa

54 %

1.6 km/h aus 116

8.0 km/h aus NNE

8.6 C

17.3 C

18.1 C

17.3 C

229 W/m

0.00 mm

18:15

18.1 C

1017.7 hpa

54 %

3.2 km/h aus 117

8.0 km/h aus ENE

8.7 C

17.4 C

18.1 C

17.4 C

347 W/m

0.00 mm

18:20

17.9 C

1017.7 hpa

54 %

0.0 km/h aus 116

6.4 km/h aus NE

8.4 C

17.1 C

17.9 C

17.1 C

136 W/m

0.00 mm

18:25

17.7 C

1017.7 hpa

55 %

0.0 km/h aus 115

0.0 km/h aus ---

8.5 C

16.9 C

17.7 C

16.9 C

191 W/m

0.00 mm

18:30

17.6 C

1017.7 hpa

54 %

0.0 km/h aus 115

0.0 km/h aus ---

8.1 C

16.8 C

17.6 C

16.8 C

283 W/m

0.00 mm

18:35

17.8 C

1017.7 hpa

56 %

0.0 km/h aus 117

1.6 km/h aus NE

8.9 C

17.1 C

17.8 C

17.1 C

264 W/m

0.00 mm

18:40

17.7 C

1017.7 hpa

54 %

0.0 km/h aus 117

0.0 km/h aus ---

8.2 C

16.9 C

17.7 C

16.9 C

114 W/m

0.00 mm

18:45

17.5 C

1017.6 hpa

55 %

0.0 km/h aus 117

0.0 km/h aus ---

8.4 C

16.7 C

17.5 C

16.7 C

161 W/m

0.00 mm

18:50

17.5 C

1017.6 hpa

56 %

0.0 km/h aus 113

0.0 km/h aus ---

8.6 C

16.8 C

17.5 C

16.8 C

128 W/m

0.00 mm

18:55

17.6 C

1017.6 hpa

56 %

0.0 km/h aus 117

0.0 km/h aus ---

8.7 C

16.8 C

17.6 C

16.8 C

86 W/m

0.00 mm

19:00

17.7 C

1017.6 hpa

56 %

0.0 km/h aus 117

0.0 km/h aus ---

8.8 C

17.0 C

17.7 C

17.0 C

88 W/m

0.00 mm

19:05

17.7 C

1017.6 hpa

56 %

0.0 km/h aus 117

0.0 km/h aus ---

8.8 C

17.0 C

17.7 C

17.0 C

94 W/m

0.00 mm

19:10

17.7 C

1017.6 hpa

56 %

0.0 km/h aus 115

0.0 km/h aus ---

8.8 C

17.0 C

17.7 C

17.0 C

89 W/m

0.00 mm

19:15

17.7 C

1017.7 hpa

56 %

0.0 km/h aus 115

0.0 km/h aus ---

8.8 C

17.0 C

17.7 C

17.0 C

81 W/m

0.00 mm

19:20

17.7 C

1017.7 hpa

57 %

0.0 km/h aus 117

0.0 km/h aus ---

9.1 C

17.1 C

17.7 C

17.1 C

76 W/m

0.00 mm

19:25

17.7 C

1017.7 hpa

56 %

0.0 km/h aus 117

0.0 km/h aus ---

8.8 C

17.0 C

17.7 C

17.0 C

73 W/m

0.00 mm

19:30

17.6 C

1017.6 hpa

54 %

0.0 km/h aus 116

0.0 km/h aus ---

8.2 C

16.8 C

17.6 C

16.8 C

70 W/m

0.00 mm

19:35

17.6 C

1017.6 hpa

55 %

0.0 km/h aus 113

0.0 km/h aus ---

8.5 C

16.9 C

17.6 C

16.9 C

69 W/m

0.00 mm

19:40

17.6 C

1017.6 hpa

55 %

0.0 km/h aus 116

4.8 km/h aus NNE

8.4 C

16.8 C

17.6 C

16.8 C

62 W/m

0.00 mm

19:45

17.6 C

1017.8 hpa

55 %

0.0 km/h aus 117

6.4 km/h aus NNE

8.4 C

16.8 C

17.6 C

16.8 C

53 W/m

0.00 mm

19:50

17.5 C

1017.8 hpa

56 %

0.0 km/h aus 117

1.6 km/h aus NNE

8.6 C

16.8 C

17.5 C

16.8 C

49 W/m

0.00 mm

19:55

17.4 C

1017.8 hpa

56 %

0.0 km/h aus 116

0.0 km/h aus ---

8.6 C

16.7 C

17.4 C

16.7 C

42 W/m

0.00 mm

20:00

17.4 C

1017.7 hpa

57 %

0.0 km/h aus 114

0.0 km/h aus ---

8.8 C

16.7 C

17.4 C

16.7 C

38 W/m

0.00 mm

20:05

17.3 C

1017.7 hpa

57 %

0.0 km/h aus 118

0.0 km/h aus ---

8.7 C

16.6 C

17.3 C

16.6 C

43 W/m

0.00 mm

20:10

17.2 C

1017.7 hpa

57 %

0.0 km/h aus 117

0.0 km/h aus ---

8.6 C

16.5 C

17.2 C

16.5 C

44 W/m

0.00 mm

20:15

17.1 C

1017.6 hpa

58 %

0.0 km/h aus 117

0.0 km/h aus ---

8.8 C

16.4 C

17.1 C

16.4 C

43 W/m

0.00 mm

20:20

17.1 C

1017.6 hpa

58 %

0.0 km/h aus 115

0.0 km/h aus ---

8.7 C

16.4 C

17.1 C

16.4 C

40 W/m

0.00 mm

20:25

16.9 C

1017.6 hpa

58 %

0.0 km/h aus 115

0.0 km/h aus ---

8.6 C

16.2 C

16.9 C

16.2 C

34 W/m

0.00 mm

20:30

16.9 C

1017.6 hpa

58 %

0.0 km/h aus 116

0.0 km/h aus ---

8.6 C

16.2 C

16.9 C

16.2 C

31 W/m

0.00 mm

20:35

16.8 C

1017.6 hpa

58 %

0.0 km/h aus 117

0.0 km/h aus ---

8.5 C

16.1 C

16.8 C

16.1 C

29 W/m

0.00 mm

20:40

16.7 C

1017.6 hpa

59 %

0.0 km/h aus 117

0.0 km/h aus ---

8.7 C

16.0 C

16.7 C

16.0 C

27 W/m

0.00 mm

20:45

16.6 C

1017.6 hpa

59 %

0.0 km/h aus 114

0.0 km/h aus ---

8.6 C

15.9 C

16.6 C

15.9 C

24 W/m

0.00 mm

20:50

16.4 C

1017.6 hpa

59 %

0.0 km/h aus 116

0.0 km/h aus ---

8.4 C

15.7 C

16.4 C

15.7 C

22 W/m

0.00 mm

20:55

16.3 C

1017.6 hpa

60 %

0.0 km/h aus 116

0.0 km/h aus ---

8.5 C

15.6 C

16.3 C

15.6 C

19 W/m

0.00 mm

21:00

16.1 C

1017.9 hpa

61 %

0.0 km/h aus 115

0.0 km/h aus ---

8.5 C

15.4 C

16.1 C

15.4 C

18 W/m

0.00 mm

21:05

15.9 C

1017.9 hpa

62 %

0.0 km/h aus 115

0.0 km/h aus ---

8.6 C

15.3 C

15.9 C

15.3 C

16 W/m

0.00 mm

21:10

15.7 C

1017.9 hpa

64 %

0.0 km/h aus 115

0.0 km/h aus ---

8.9 C

15.1 C

15.7 C

15.1 C

14 W/m

0.00 mm

21:15

15.4 C

1018.0 hpa

64 %

0.0 km/h aus 115

0.0 km/h aus ---

8.7 C

14.9 C

15.4 C

14.9 C

12 W/m

0.00 mm

21:20

15.2 C

1018.0 hpa

65 %

0.0 km/h aus 117

0.0 km/h aus ---

8.7 C

14.7 C

15.2 C

14.7 C

10 W/m

0.00 mm

21:25

15.0 C

1018.0 hpa

66 %

0.0 km/h aus 117

0.0 km/h aus ---

8.7 C

14.5 C

15.0 C

14.5 C

8 W/m

0.00 mm

21:30

14.8 C

1018.1 hpa

67 %

0.0 km/h aus 117

0.0 km/h aus ---

8.7 C

14.3 C

14.8 C

14.3 C

4 W/m

0.00 mm

21:35

14.5 C

1018.1 hpa

67 %

0.0 km/h aus 114

0.0 km/h aus ---

8.4 C

14.0 C

14.5 C

14.0 C

0 W/m

0.00 mm

21:40

14.3 C

1018.1 hpa

68 %

0.0 km/h aus 115

0.0 km/h aus ---

8.4 C

13.8 C

14.3 C

13.8 C

0 W/m

0.00 mm

21:45

14.1 C

1018.1 hpa

69 %

0.0 km/h aus 117

0.0 km/h aus ---

8.5 C

13.6 C

14.1 C

13.6 C

0 W/m

0.00 mm

21:50

13.8 C

1018.1 hpa

69 %

0.0 km/h aus 116

0.0 km/h aus ---

8.2 C

13.4 C

13.8 C

13.4 C

0 W/m

0.00 mm

21:55

13.7 C

1018.1 hpa

70 %

0.0 km/h aus 117

0.0 km/h aus ---

8.3 C

13.2 C

13.7 C

13.2 C

0 W/m

0.00 mm

22:00

13.4 C

1018.2 hpa

71 %

0.0 km/h aus 114

0.0 km/h aus ---

8.3 C

13.0 C

13.4 C

13.0 C

0 W/m

0.00 mm

22:05

13.2 C

1018.2 hpa

71 %

0.0 km/h aus 114

0.0 km/h aus ---

8.1 C

12.8 C

13.2 C

12.8 C

0 W/m

0.00 mm

22:10

13.1 C

1018.2 hpa

71 %

0.0 km/h aus 117

0.0 km/h aus ---

7.9 C

12.7 C

13.1 C

12.7 C

0 W/m

0.00 mm

22:15

12.8 C

1018.1 hpa

72 %

0.0 km/h aus 118

0.0 km/h aus ---

7.9 C

12.4 C

12.8 C

12.4 C

0 W/m

0.00 mm

22:20

12.6 C

1018.1 hpa

72 %

0.0 km/h aus 116

0.0 km/h aus ---

7.7 C

12.2 C

12.6 C

12.2 C

0 W/m

0.00 mm

22:25

12.4 C

1018.1 hpa

73 %

0.0 km/h aus 113

0.0 km/h aus ---

7.7 C

12.1 C

12.4 C

12.1 C

0 W/m

0.00 mm

22:30

12.2 C

1018.2 hpa

73 %

0.0 km/h aus 114

0.0 km/h aus ---

7.5 C

11.9 C

12.2 C

11.9 C

0 W/m

0.00 mm

22:35

12.1 C

1018.2 hpa

74 %

0.0 km/h aus 117

0.0 km/h aus ---

7.6 C

11.8 C

12.1 C

11.8 C

0 W/m

0.00 mm

22:40

11.9 C

1018.2 hpa

74 %

0.0 km/h aus 117

0.0 km/h aus ---

7.4 C

11.6 C

11.9 C

11.6 C

0 W/m

0.00 mm

22:45

11.7 C

1018.2 hpa

74 %

0.0 km/h aus 117

0.0 km/h aus ---

7.2 C

11.4 C

11.7 C

11.4 C

0 W/m

0.00 mm

22:50

11.6 C

1018.2 hpa

74 %

0.0 km/h aus 116

0.0 km/h aus ---

7.1 C

11.3 C

11.6 C

11.3 C

0 W/m

0.00 mm

22:55

11.4 C

1018.2 hpa

75 %

0.0 km/h aus 113

0.0 km/h aus ---

7.1 C

11.1 C

11.4 C

11.1 C

0 W/m

0.00 mm

23:00

11.2 C

1018.1 hpa

75 %

0.0 km/h aus 115

0.0 km/h aus ---

7.0 C

11.0 C

11.2 C

11.0 C

0 W/m

0.00 mm

23:05

11.1 C

1018.1 hpa

76 %

0.0 km/h aus 117

0.0 km/h aus ---

7.0 C

10.9 C

11.1 C

10.9 C

0 W/m

0.00 mm

23:10

10.9 C

1018.1 hpa

76 %

0.0 km/h aus 117

0.0 km/h aus ---

6.9 C

10.8 C

10.9 C

10.8 C

0 W/m

0.00 mm

23:15

10.8 C

1018.1 hpa

76 %

0.0 km/h aus 117

0.0 km/h aus ---

6.7 C

10.6 C

10.8 C

10.6 C

0 W/m

0.00 mm

23:20

10.7 C

1018.1 hpa

76 %

0.0 km/h aus 116

0.0 km/h aus ---

6.6 C

10.5 C

10.7 C

10.5 C

0 W/m

0.00 mm

23:25

10.6 C

1018.1 hpa

76 %

0.0 km/h aus 115

0.0 km/h aus ---

6.5 C

10.4 C

10.6 C

10.4 C

0 W/m

0.00 mm

23:30

10.4 C

1018.2 hpa

77 %

0.0 km/h aus 115

0.0 km/h aus ---

6.6 C

10.3 C

10.4 C

10.3 C

0 W/m

0.00 mm

23:35

10.3 C

1018.2 hpa

77 %

0.0 km/h aus 115

0.0 km/h aus ---

6.5 C

10.2 C

10.3 C

10.2 C

0 W/m

0.00 mm

23:40

10.2 C

1018.2 hpa

77 %

0.0 km/h aus 116

0.0 km/h aus ---

6.3 C

10.1 C

10.2 C

10.1 C

0 W/m

0.00 mm

23:45

10.1 C

1018.2 hpa

77 %

0.0 km/h aus 116

0.0 km/h aus ---

6.2 C

10.0 C

10.1 C

10.0 C

0 W/m

0.00 mm

23:50

10.0 C

1018.2 hpa

78 %

0.0 km/h aus 115

0.0 km/h aus ---

6.3 C

9.9 C

10.0 C

9.9 C

0 W/m

0.00 mm

23:55

9.9 C

1018.2 hpa

78 %

0.0 km/h aus 114

0.0 km/h aus ---

6.3 C

9.9 C

9.9 C

9.9 C

0 W/m

0.00 mm